Location: ?????????
(54.7630°N, 39.4991°E)
Time: 06:42:32
(UTC+00:00)

USA 229 DEB - Pass Details

Date: 14 April 2026
Orbit: 844 x 1364 km, 63.4° (Epoch: 10 January)

Event Time Altitude Azimuth Distance (km) Brightness Sun altitude
Rises 23:42:08 0° 311° (NW) 3,964 6.7 -19.2°
Reaches altitude 10° 23:44:51 10° 305° (NW) 3,076 6.1 -18.9°
Maximum altitude 23:51:43 42° 238° (WSW) 1,729 4.3 -18.3°
Drops below altitude 10° 23:59:15 10° 172° (S) 3,358 5.9 -17.6°
Sets 00:02:21 0° 166° (SSE) 4,361 6.6 -17.3°
